Ely, MN

4:22 AM CDT on July 21, 2017 (GMT -0500)
Ely Municipal

Weather History for KELO - October, 2011

Change the Weather History Date:

Thursday, October 13, 2011

  Actual Average Record
Temperature  
Mean Temperature 52 °F -  
Max Temperature 53 °F 51 °F 64 °F (2000)
Min Temperature 48 °F 33 °F 26 °F (2002)
Degree Days  
Heating Degree Days 14    
Growing Degree Days 2 (Base 50)    
Moisture  
Dew Point 51 °F    
Average Humidity 96    
Maximum Humidity 100    
Minimum Humidity 87    
Precipitation  
Precipitation 0.30 in - - ()
Sea Level Pressure  
Sea Level Pressure 29.55 in    
Wind  
Wind Speed 3 mph (West)    
Max Wind Speed 13 mph    
Max Gust Speed 20 mph    
Visibility 8 miles    
Events Rain    
Averages and records for this station are not official NWS values.
T = Trace of Precipitation, MM = Missing Value Source: NWS Daily Summary

Daily Weather History Graph

Daily Weather History Graph

Search for Another Location

Airport or City:

Trip Planner

Search our weather history database for the weather conditions in past years. The results will help you decide how hot, cold, wet, or windy it might be!

Date:

Astronomy

Oct. 13, 2011 Rise Set
Actual Time 7:23 AM CDT 6:23 PM CDT
Civil Twilight 6:52 AM CDT 6:54 PM CDT
Nautical Twilight 6:16 AM CDT 7:30 PM CDT
Astronomical Twilight 5:40 AM CDT 8:05 PM CDT
Moon 6:46 PM CDT (10/13) 9:07 AM CDT (10/13)
Length of Visible Light 12h 02m
Length of Day
11h 00m
Full, 98% of the Moon is Illuminated
Oct 13
Full
Oct 19
Last Quarter
Oct 26
New
Nov 2
First Quarter
Nov 10
Full

Hourly Weather History & Observations

Time (CDT) Temp. Windchill Dew Point Humidity Pressure Visibility Wind Dir Wind Speed Gust Speed Precip Events Conditions
12:13 AM 53.6 °F - 51.8 °F 94% 29.64 in 10.0 mi West 4.6 mph - 0.02 in Rain Light Rain
12:32 AM 53.6 °F - 51.8 °F 94% 29.64 in 7.0 mi ESE 4.6 mph - 0.04 in Rain Rain
12:53 AM 53.6 °F - 51.8 °F 94% 29.63 in 10.0 mi ESE 3.5 mph - 0.06 in Rain Light Rain
12:55 AM 53.6 °F - 51.8 °F 94% 29.63 in 10.0 mi Calm Calm - 0.07 in Rain Light Rain
1:13 AM 53.6 °F - 51.8 °F 94% 29.63 in 7.0 mi Calm Calm - N/A Rain Light Rain
1:32 AM 51.8 °F - 51.8 °F 100% 29.62 in 5.0 mi Calm Calm - 0.01 in Rain Light Rain
1:53 AM 53.6 °F - 51.8 °F 94% 29.61 in 10.0 mi Calm Calm - 0.02 in Rain Light Rain
1:55 AM 53.6 °F - 51.8 °F 94% 29.61 in 10.0 mi Calm Calm - 0.02 in Rain Rain
2:13 AM 53.6 °F - 51.8 °F 94% 29.60 in 10.0 mi Calm Calm - N/A   Overcast
2:32 AM 53.6 °F - 51.8 °F 94% 29.59 in 10.0 mi Calm Calm - N/A Rain Light Rain
2:53 AM 51.8 °F - 51.8 °F 100% 29.59 in 4.0 mi Calm Calm - N/A Rain Light Rain
3:12 AM 51.8 °F - 50.0 °F 94% 29.59 in 0.8 mi WSW 4.6 mph - N/A Rain Light Rain
3:32 AM 51.8 °F - 51.8 °F 100% 29.59 in 7.0 mi WSW 3.5 mph - N/A Rain Light Rain
3:53 AM 51.8 °F - 51.8 °F 100% 29.59 in 10.0 mi Calm Calm - 0.01 in Rain Light Rain
3:55 AM 51.8 °F - 51.8 °F 100% 29.59 in 10.0 mi Calm Calm - 0.01 in Rain Light Rain
4:12 AM 51.8 °F - 51.8 °F 100% 29.58 in 10.0 mi Calm Calm - N/A Rain Light Rain
4:32 AM 51.8 °F - 51.8 °F 100% 29.58 in 10.0 mi Calm Calm - 0.01 in Rain Light Rain
4:53 AM 51.8 °F - 51.8 °F 100% 29.57 in 10.0 mi Calm Calm - 0.01 in Rain Light Rain
4:55 AM 51.8 °F - 51.8 °F 100% 29.57 in 10.0 mi Calm Calm - 0.01 in   Overcast
5:13 AM 51.8 °F - 51.8 °F 100% 29.57 in 10.0 mi Calm Calm - N/A Rain Rain
5:32 AM 51.8 °F - 50.0 °F 94% 29.57 in 10.0 mi ESE 3.5 mph - N/A Rain Light Rain
5:53 AM 51.8 °F - 50.0 °F 94% 29.57 in 4.0 mi Calm Calm - N/A Rain Light Rain
6:13 AM 51.8 °F - 50.0 °F 94% 29.57 in 10.0 mi SSE 3.5 mph - N/A Rain Light Rain
6:33 AM 51.8 °F - 50.0 °F 94% 29.57 in 10.0 mi Calm Calm - N/A Rain Rain
6:52 AM 51.8 °F - 50.0 °F 94% 29.56 in 7.0 mi Calm Calm - N/A   Drizzle
7:13 AM 51.8 °F - 51.8 °F 100% 29.56 in 10.0 mi SSW 4.6 mph - 0.01 in Rain Light Rain
7:32 AM 51.8 °F - 50.0 °F 94% 29.56 in 10.0 mi SSW 4.6 mph - 0.01 in Rain Rain
7:52 AM 51.8 °F - 51.8 °F 100% 29.55 in 7.0 mi SSW 3.5 mph - 0.01 in Rain Light Rain
7:55 AM 51.8 °F - 51.8 °F 100% 29.55 in 7.0 mi SSW 3.5 mph - 0.01 in Rain Light Rain
8:13 AM 51.8 °F - 51.8 °F 100% 29.55 in 7.0 mi Calm Calm - 0.01 in Rain Light Rain
8:32 AM 51.8 °F - 51.8 °F 100% 29.54 in 7.0 mi Calm Calm - 0.02 in Rain Light Rain
8:52 AM 51.8 °F - 51.8 °F 100% 29.54 in 10.0 mi SSW 3.5 mph - N/A Rain Light Rain
8:55 AM 51.8 °F - 51.8 °F 100% 29.54 in 7.0 mi Calm Calm - 0.03 in Rain Light Rain
9:13 AM 51.8 °F - 51.8 °F 100% 29.53 in 7.0 mi SW 3.5 mph - N/A Rain Light Rain
9:32 AM 51.8 °F - 51.8 °F 100% 29.53 in 2.5 mi SSW 3.5 mph - N/A Rain Rain
9:52 AM 53.6 °F - 51.8 °F 94% 29.53 in 4.0 mi WSW 3.5 mph - N/A Rain Light Rain
10:13 AM 53.6 °F - 51.8 °F 94% 29.52 in 5.0 mi West 3.5 mph - 0.01 in Rain Light Rain
10:32 AM 53.6 °F - 51.8 °F 94% 29.52 in 7.0 mi WSW 3.5 mph - 0.02 in Rain Light Rain
10:52 AM 53.6 °F - 51.8 °F 94% 29.52 in 7.0 mi West 6.9 mph - 0.03 in Rain Light Rain
10:55 AM 53.6 °F - 51.8 °F 94% 29.52 in 7.0 mi West 8.1 mph - 0.03 in Rain Light Rain
11:13 AM 51.8 °F - 51.8 °F 100% 29.51 in 10.0 mi West 4.6 mph - 0.02 in Rain Light Rain
11:32 AM 53.6 °F - 51.8 °F 94% 29.51 in 7.0 mi West 9.2 mph - 0.03 in Rain Light Rain
11:52 AM 51.8 °F - 51.8 °F 100% 29.51 in 10.0 mi West 6.9 mph - 0.07 in Rain Rain
11:55 AM 53.6 °F - 51.8 °F 94% 29.51 in 10.0 mi West 6.9 mph - 0.07 in Rain Rain
12:13 PM 53.6 °F - 51.8 °F 94% 29.50 in 10.0 mi West 8.1 mph - N/A Rain Rain
12:32 PM 51.8 °F - 50.0 °F 94% 29.50 in 10.0 mi West 11.5 mph - N/A Rain Rain
12:52 PM 51.8 °F - 50.0 °F 94% 29.50 in 10.0 mi WNW 5.8 mph - 0.02 in Rain Light Rain
12:55 PM 51.8 °F - 50.0 °F 94% 29.50 in 10.0 mi West 8.1 mph - 0.02 in Rain Light Rain
1:13 PM 51.8 °F - 51.8 °F 100% 29.49 in 10.0 mi WNW 8.1 mph - 0.01 in Rain Light Rain
1:32 PM 51.8 °F - 51.8 °F 100% 29.49 in 7.0 mi WNW 9.2 mph - 0.01 in Rain Light Rain
1:52 PM 53.6 °F - 51.8 °F 94% 29.49 in 10.0 mi WNW 10.4 mph - N/A Rain Light Rain
1:55 PM 51.8 °F - 50.0 °F 94% 29.49 in 7.0 mi WNW 9.2 mph - 0.02 in Rain Light Rain
2:13 PM 51.8 °F - 48.2 °F 88% 29.49 in 10.0 mi WNW 12.7 mph 18.4 mph 0.01 in Rain Rain
2:32 PM 51.8 °F - 48.2 °F 88% 29.49 in 7.0 mi WNW 8.1 mph 18.4 mph 0.01 in   Drizzle
2:52 PM 51.8 °F - 48.2 °F 88% 29.50 in 10.0 mi WNW 11.5 mph 19.6 mph 0.01 in   Overcast
2:55 PM 51.8 °F - 48.2 °F 88% 29.50 in 10.0 mi WNW 9.2 mph 19.6 mph 0.01 in   Overcast
3:12 PM 51.8 °F - 48.2 °F 88% 29.50 in 10.0 mi WNW 10.4 mph 19.6 mph N/A   Overcast
3:33 PM 50.0 °F - 48.2 °F 94% 29.51 in 10.0 mi WNW 10.4 mph 16.1 mph N/A Rain Light Rain
3:52 PM 50.0 °F - 46.4 °F 87% 29.51 in 10.0 mi WNW 8.1 mph - N/A   Light Drizzle
4:12 PM 48.2 °F - 46.4 °F 93% 29.51 in 10.0 mi WNW 8.1 mph - N/A   Overcast
4:33 PM 48.2 °F - 46.4 °F 93% 29.52 in 5.0 mi WNW 10.4 mph - 0.01 in Rain Rain
4:52 PM 48.2 °F - 46.4 °F 93% 29.52 in 7.0 mi WNW 8.1 mph 16.1 mph 0.01 in Rain Light Rain
4:55 PM 48.2 °F - 46.4 °F 93% 29.52 in 4.0 mi WNW 12.7 mph 16.1 mph 0.01 in Rain Light Rain
5:12 PM 48.2 °F - 46.4 °F 93% 29.52 in 10.0 mi WNW 9.2 mph 17.3 mph 0.01 in Rain Light Rain
5:33 PM 48.2 °F - 46.4 °F 93% 29.52 in 10.0 mi NW 10.4 mph - 0.01 in   Overcast
5:52 PM 48.2 °F - 46.4 °F 93% 29.53 in 10.0 mi WNW 8.1 mph - 0.01 in   Overcast
5:55 PM 48.2 °F - 46.4 °F 93% 29.53 in 10.0 mi WNW 9.2 mph - 0.01 in   Overcast
6:12 PM 48.2 °F - 44.6 °F 87% 29.53 in 10.0 mi WNW 6.9 mph 17.3 mph N/A   Overcast
6:33 PM 48.2 °F - 44.6 °F 87% 29.53 in 10.0 mi WNW 8.1 mph - N/A   Overcast
6:52 PM 46.4 °F 42.9 °F 44.6 °F 93% 29.53 in 10.0 mi WNW 6.9 mph - N/A   Overcast
7:13 PM 46.4 °F 42.4 °F 44.6 °F 93% 29.53 in 4.0 mi WNW 8.1 mph 16.1 mph N/A Rain Rain
7:32 PM 46.4 °F 42.9 °F 44.6 °F 93% 29.53 in 3.0 mi WNW 6.9 mph - N/A Rain Heavy Rain
7:52 PM 46.4 °F 42.4 °F 44.6 °F 93% 29.53 in 3.0 mi WNW 8.1 mph - 0.01 in Rain Heavy Rain
7:55 PM 46.4 °F 42.4 °F 44.6 °F 93% 29.53 in 3.0 mi WNW 8.1 mph - 0.02 in   Heavy Drizzle
8:13 PM 46.4 °F 41.9 °F 44.6 °F 93% 29.53 in 3.0 mi WNW 9.2 mph 21.9 mph N/A Rain Heavy Rain
8:32 PM 46.4 °F 42.9 °F 44.6 °F 93% 29.53 in 3.0 mi WNW 6.9 mph - N/A Rain Heavy Rain
8:52 PM 46.4 °F 42.9 °F 44.6 °F 93% 29.53 in 3.0 mi WNW 6.9 mph - N/A   Heavy Drizzle
8:55 PM 46.4 °F 42.4 °F 44.6 °F 93% 29.53 in 3.0 mi WNW 8.1 mph - N/A   Heavy Drizzle
9:13 PM 44.6 °F 39.7 °F 44.6 °F 100% 29.53 in 4.0 mi WNW 9.2 mph 20.7 mph N/A   Drizzle
9:32 PM 44.6 °F 39.7 °F 42.8 °F 93% 29.52 in 3.0 mi WNW 9.2 mph 18.4 mph 0.01 in   Heavy Drizzle
9:53 PM 44.6 °F 40.7 °F 44.6 °F 100% 29.52 in 3.0 mi WNW 6.9 mph - 0.01 in Rain Light Rain
9:55 PM 44.6 °F 40.2 °F 44.6 °F 100% 29.52 in 3.0 mi WNW 8.1 mph - 0.01 in Rain Light Rain
10:12 PM 44.6 °F 39.7 °F 42.8 °F 93% 29.52 in 3.0 mi WNW 9.2 mph - N/A Rain Light Rain
10:32 PM 44.6 °F 39.7 °F 42.8 °F 93% 29.51 in 3.0 mi WNW 9.2 mph - N/A Rain Rain
10:53 PM 44.6 °F 41.4 °F 42.8 °F 93% 29.51 in 10.0 mi WNW 5.8 mph - N/A   Overcast
11:13 PM 44.6 °F 40.2 °F 42.8 °F 93% 29.51 in 10.0 mi WNW 8.1 mph - N/A   Overcast
11:32 PM 44.6 °F 40.7 °F 42.8 °F 93% 29.51 in 10.0 mi WNW 6.9 mph - N/A   Overcast
11:53 PM 44.6 °F 39.7 °F 42.8 °F 93% 29.51 in 10.0 mi WNW 9.2 mph - N/A   Overcast